Wind_Speed
17 17 17 18 18 19 19 20 20 19 19 19 19 20 20 19 20 20 21 21 20 20 20 21 21 21 22 23 22 22 22 22 22 23 23 23 23 23 23 24 24 24 25 25
18 18 18 18 18 18 18 19 18 18 19 19 19 20 19 19 19 20 20 20 20 20 20 21 22 22 22 22 23 22 22 22 22 23 22 22 22 23 23 23 24 24 24 24
20 19 18 18 18 18 17 18 17 18 18 18 19 19 19 19 19 20 20 20 20 20 21 22 21 21 22 22 22 22 22 22 22 22 23 23 22 22 23 23 23 23 24 25
20 19 18 18 18 18 17 17 18 18 18 18 18 18 17 19 19 20 20 20 20 21 21 21 21 21 21 21 21 22 21 21 21 22 23 23 22 22 23 23 23 23 24 26
19 19 19 19 19 19 19 19 19 19 19 18 18 19 16 17 18 19 20 20 20 20 20 20 20 21 21 21 21 21 21 21 21 21 22 22 22 22 22 23 23 24 25 25
19 19 19 19 19 20 20 20 20 19 19 20 18 19 18 17 17 18 19 20 20 20 20 20 20 20 20 21 21 21 21 21 21 21 22 22 22 23 23 23 24 25 25 26
19 18 18 19 19 19 20 20 20 20 20 20 19 20 18 18 18 18 19 19 20 19 20 20 20 20 21 22 21 21 21 21 21 22 22 22 23 24 24 24 26 25 25 26
20 19 19 20 20 20 20 20 21 22 22 21 20 20 19 20 19 18 18 18 18 18 18 19 19 20 20 21 21 21 21 22 22 23 23 23 24 25 25 26 27 27 27 27
21 20 19 20 20 21 21 21 22 22 23 22 21 20 20 20 19 18 18 18 18 18 18 18 19 19 20 21 21 22 22 22 23 23 23 24 25 26 26 27 28 28 28 28
21 21 21 21 21 21 22 22 23 23 24 24 22 20 20 19 19 18 18 19 18 19 19 19 20 20 21 21 22 23 23 23 23 24 24 25 26 27 28 28 29 29 29 29
22 23 22 22 22 22 22 23 23 24 25 25 24 21 21 21 21 20 19 19 19 20 20 20 21 21 21 22 22 23 25 25 25 25 26 26 27 28 28 29 30 31 31 31
24 24 24 23 24 24 24 24 24 24 25 25 25 22 22 22 22 21 21 20 20 20 21 21 22 22 22 23 23 24 25 26 27 27 27 27 28 29 29 30 31 31 32 32
26 27 26 26 25 25 25 25 25 26 26 26 26 23 22 23 23 23 23 22 21 21 22 22 22 23 24 24 25 25 26 26 27 27 28 28 29 30 30 31 31 31 32 33
28 29 29 28 27 27 27 27 27 27 28 28 26 25 25 25 25 25 25 24 24 24 24 24 25 25 25 26 26 26 27 28 28 28 29 30 31 30 30 31 32 33 33 34
31 31 31 31 31 30 30 29 29 30 29 29 27 27 26 26 26 26 26 26 26 26 26 26 26 27 27 28 28 28 28 28 29 30 30 30 31 31 31 32 33 34 34 35
32 33 33 33 33 33 33 31 31 32 32 31 30 29 27 27 27 27 27 27 28 28 28 28 28 28 29 29 30 31 31 31 31 31 32 32 32 32 32 32 33 34 35 36
34 34 34 35 34 35 35 32 32 33 33 33 33 31 30 30 29 29 29 29 29 30 30 31 30 30 30 31 31 32 32 32 31 32 32 33 33 34 34 34 35 35 36 37
35 35 36 36 36 38 34 33 33 33 33 34 34 32 33 33 33 32 32 32 31 31 31 32 32 32 32 33 33 33 33 33 33 33 33 34 34 35 36 37 37 38 38 38
36 36 37 37 38 39 36 34 35 35 35 34 35 34 34 35 35 34 34 34 33 33 33 33 33 33 34 34 34 35 35 35 35 35 35 36 36 37 37 38 39 40 40 41
37 37 38 38 39 39 36 35 36 38 39 37 37 36 36 36 36 35 36 35 35 35 35 35 35 35 35 35 35 36 36 36 36 37 37 38 38 38 39 39 40 41 41 42
38 38 39 39 39 39 36 36 37 38 38 38 38 38 38 38 38 37 37 37 37 37 36 36 37 37 37 37 37 37 37 38 38 38 39 39 39 40 41 41 41 41 42 43
39 40 40 40 41 39 37 37 38 38 38 38 38 39 39 40 40 40 39 39 39 39 38 38 38 38 39 39 39 39 39 40 40 40 41 41 41 41 42 43 43 43 43 44
41 41 42 42 42 40 40 40 40 40 39 39 39 39 40 41 41 41 41 41 41 41 41 40 40 40 40 40 41 42 43 43 43 43 43 43 43 43 44 45 45 45 45 45
43 43 44 43 41 41 41 42 42 42 42 42 42 41 42 42 42 42 42 42 42 43 43 43 43 43 42 43 44 45 45 45 45 45 44 45 45 45 46 47 47 47 46 46
45 44 44 44 42 43 43 44 44 44 44 43 43 43 44 44 44 44 44 44 44 45 46 46 46 46 45 45 45 46 47 47 46 45 46 47 47 47 48 48 48 47 47 47
44 44 44 44 43 45 44 45 45 45 45 45 46 46 46 46 46 46 46 47 47 47 47 48 49 48 48 48 48 48 48 48 47 47 48 48 49 49 49 48 47 47 47 47
Wind_Direction
262 259 260 262 263 263 263 263 263 263 264 265 265 266 266 266 264 262 263 264 262 260 258 257 258 260 260 258 256 258 262 263 264 266 270 272 275 279 280 281 282 283 285 286
263 261 262 263 264 262 262 264 266 265 266 268 268 267 266 265 266 265 264 264 261 260 261 259 258 258 258 258 259 263 263 265 265 266 268 271 274 278 280 280 280 282 284 285
264 263 262 261 261 262 264 265 266 268 268 269 268 266 266 266 266 266 264 263 261 261 263 261 259 258 258 259 260 262 263 264 265 266 267 270 273 276 279 279 281 283 285 286
263 261 260 259 259 262 263 263 265 268 270 270 270 271 266 267 268 267 265 264 263 264 265 262 259 259 259 259 261 262 262 264 266 267 268 269 272 276 279 280 282 283 285 285
263 262 260 259 259 260 262 263 266 269 271 270 271 274 270 271 272 270 267 265 264 266 267 264 261 259 259 259 261 262 260 263 266 268 269 271 272 275 278 279 281 284 283 284
262 262 261 258 256 258 261 262 265 267 270 270 273 277 277 275 274 273 271 266 265 267 265 264 264 261 259 260 262 263 262 266 269 270 272 273 274 276 277 279 281 285 286 285
260 260 260 258 255 256 258 262 266 269 269 272 274 277 281 279 276 274 273 270 267 267 265 262 261 260 258 260 262 264 264 266 268 270 271 273 274 276 277 278 280 284 286 286
261 259 259 258 258 257 258 262 267 273 274 275 275 276 281 281 278 276 274 270 266 264 264 262 260 259 259 261 263 265 266 266 268 270 271 272 274 276 277 278 280 281 284 287
262 259 258 259 259 259 260 263 268 272 274 276 276 278 280 280 280 275 273 269 265 263 263 263 262 261 263 263 265 266 268 269 270 270 272 274 275 277 278 279 281 282 284 286
261 260 258 259 260 261 262 265 268 271 275 276 276 278 279 280 280 277 273 269 265 265 265 265 265 266 266 266 267 267 269 271 270 271 273 274 276 277 279 281 283 284 284 284
260 260 260 260 260 262 262 263 266 268 272 276 277 277 278 279 280 281 276 272 268 266 267 267 266 267 267 268 270 271 271 271 270 271 275 277 277 278 280 281 283 284 285 285
260 260 260 260 261 261 262 264 266 268 271 273 276 279 277 277 280 281 279 276 272 269 269 268 265 266 268 268 270 273 274 272 271 272 274 276 277 278 279 281 283 284 285 285
260 261 261 261 261 261 261 263 265 267 269 271 274 277 276 276 277 278 279 277 274 271 270 268 266 267 271 271 271 273 273 272 272 273 274 275 278 279 280 282 283 285 286 287
260 261 262 263 264 264 263 262 263 264 267 269 273 274 272 273 274 275 277 277 274 271 270 269 269 270 271 273 273 274 274 273 273 274 275 276 279 280 281 281 283 285 287 287
260 262 262 262 264 264 264 264 265 267 269 270 272 272 272 271 272 273 274 275 273 271 271 270 270 270 270 271 272 272 273 273 273 274 275 275 277 279 281 283 284 285 287 287
262 263 263 263 264 265 264 263 265 267 268 270 270 270 271 271 271 272 273 273 272 271 271 270 270 269 270 270 272 273 273 274 274 274 275 275 277 279 280 283 285 286 287 288
263 265 265 265 264 265 263 264 266 267 268 268 268 270 270 270 270 272 273 274 274 273 272 271 271 271 271 271 273 274 274 275 275 275 275 276 277 279 281 282 284 285 287 288
263 265 266 266 265 264 266 266 266 267 267 268 269 270 269 269 270 271 273 274 273 272 271 271 271 272 273 274 273 274 274 275 275 276 276 277 278 280 281 283 285 286 286 288
263 264 266 266 266 266 266 268 269 268 267 267 268 269 270 270 270 271 272 273 272 271 270 270 271 272 273 274 274 274 274 275 276 277 277 278 279 280 282 284 285 286 287 288
261 263 264 266 266 267 269 270 270 268 267 267 268 270 271 270 270 271 271 273 271 270 270 270 270 272 273 274 274 273 273 274 275 277 279 279 280 282 283 285 286 286 287 288
261 262 263 264 266 267 269 269 270 269 270 269 269 270 271 271 271 271 272 272 271 270 270 271 271 272 273 273 274 274 274 275 276 278 279 281 282 283 284 285 286 287 287 288
262 263 263 263 264 267 268 268 268 269 268 268 268 270 271 271 271 271 271 272 272 272 270 270 270 270 272 273 274 275 275 277 278 279 280 281 283 284 284 284 284 285 285 287
262 263 264 264 266 268 267 267 267 267 266 267 268 268 269 269 269 270 270 271 271 271 270 270 270 270 271 272 273 274 275 277 279 280 281 282 283 284 284 284 284 285 285 286
262 262 263 264 266 266 266 266 267 267 266 267 268 268 268 268 268 268 268 268 269 269 269 269 269 270 270 271 272 272 274 276 277 278 279 280 282 283 283 284 284 284 284 285
261 262 263 263 265 265 266 267 268 267 268 268 269 269 268 268 268 268 268 269 269 269 269 268 269 269 270 270 271 272 274 275 276 277 278 279 280 281 282 283 283 283 283 284
261 261 262 263 264 265 265 266 266 267 267 268 269 269 269 269 269 269 270 270 270 269 268 268 269 270 270 270 271 272 273 274 276 277 278 279 280 280 281 282 282 283 283 283
Height
5743 5744 5744 5745 5744 5744 5743 5743 5743 5743 5742 5742 5741 5741 5740 5740 5739 5739 5739 5738 5737 5737 5737 5738 5739 5739 5740 5740 5741 5742 5742 5742 5742 5742 5741 5741 5740 5739 5738 5736 5735 5733 5731 5730
5738 5739 5740 5739 5738 5738 5738 5738 5738 5738 5736 5736 5735 5735 5735 5734 5734 5733 5733 5733 5733 5732 5732 5732 5732 5733 5734 5735 5736 5736 5737 5736 5736 5736 5736 5735 5734 5733 5732 5730 5729 5727 5726 5724
5733 5734 5733 5733 5733 5733 5733 5733 5733 5732 5731 5730 5730 5730 5730 5729 5728 5728 5728 5727 5727 5727 5727 5727 5727 5727 5728 5728 5730 5730 5730 5730 5730 5730 5729 5728 5728 5727 5725 5724 5723 5721 5720 5718
5727 5727 5727 5727 5728 5728 5729 5729 5728 5727 5726 5725 5725 5724 5725 5724 5723 5722 5723 5722 5722 5722 5721 5721 5721 5722 5722 5723 5724 5724 5724 5724 5724 5723 5723 5722 5722 5721 5720 5718 5717 5715 5714 5712
5721 5722 5722 5722 5723 5723 5723 5723 5723 5722 5721 5721 5720 5719 5720 5719 5718 5718 5718 5717 5717 5716 5716 5715 5716 5717 5717 5718 5718 5718 5718 5718 5718 5717 5717 5716 5716 5715 5714 5712 5711 5709 5707 5705
5716 5716 5716 5717 5717 5717 5718 5718 5718 5717 5716 5716 5716 5714 5714 5714 5713 5712 5712 5711 5711 5711 5710 5710 5711 5711 5712 5712 5712 5712 5713 5712 5712 5712 5711 5711 5710 5709 5708 5706 5705 5703 5701 5699
5711 5711 5711 5711 5712 5712 5713 5713 5713 5711 5711 5712 5711 5709 5710 5708 5708 5707 5706 5705 5705 5705 5705 5705 5705 5706 5706 5706 5707 5707 5707 5707 5707 5706 5706 5705 5704 5703 5702 5700 5699 5697 5695 5692
5705 5706 5706 5706 5707 5707 5707 5708 5708 5707 5706 5707 5706 5704 5706 5704 5702 5701 5701 5700 5700 5700 5700 5699 5700 5700 5701 5701 5701 5701 5702 5701 5701 5700 5700 5699 5698 5697 5696 5694 5692 5690 5688 5686
5699 5700 5700 5700 5701 5702 5702 5702 5702 5701 5700 5700 5700 5700 5700 5699 5697 5697 5696 5695 5695 5695 5695 5695 5695 5695 5695 5696 5696 5696 5696 5695 5694 5694 5693 5693 5692 5690 5689 5687 5685 5684 5682 5680
5693 5694 5695 5695 5695 5695 5696 5696 5696 5695 5694 5693 5694 5695 5695 5694 5693 5692 5691 5690 5690 5690 5690 5690 5690 5690 5690 5690 5690 5690 5690 5689 5688 5688 5687 5686 5684 5683 5682 5680 5678 5677 5675 5672
5687 5688 5689 5689 5689 5689 5690 5690 5689 5688 5688 5688 5687 5691 5689 5688 5687 5686 5686 5685 5685 5685 5685 5685 5685 5685 5684 5684 5684 5684 5683 5682 5681 5681 5679 5678 5677 5676 5674 5672 5671 5669 5667 5665
5680 5680 5681 5682 5682 5682 5682 5683 5683 5683 5682 5681 5681 5686 5682 5682 5681 5680 5679 5679 5679 5679 5679 5678 5678 5678 5678 5678 5678 5677 5676 5675 5674 5673 5672 5671 5670 5668 5666 5664 5663 5661 5658 5656
5673 5673 5674 5675 5677 5676 5675 5675 5675 5675 5675 5674 5674 5679 5676 5675 5674 5673 5673 5673 5672 5673 5672 5672 5672 5672 5672 5671 5671 5670 5668 5667 5666 5665 5664 5663 5661 5660 5658 5656 5654 5652 5650 5647
5665 5665 5666 5668 5667 5667 5668 5668 5668 5667 5667 5667 5668 5670 5669 5667 5667 5666 5666 5665 5665 5665 5665 5665 5665 5665 5664 5664 5663 5662 5661 5660 5658 5657 5656 5655 5653 5652 5650 5648 5646 5643 5641 5638
5656 5657 5657 5658 5659 5659 5659 5660 5660 5659 5659 5660 5661 5660 5661 5660 5659 5659 5659 5658 5658 5657 5658 5657 5657 5657 5656 5656 5655 5654 5653 5651 5650 5649 5647 5646 5644 5643 5641 5639 5636 5634 5631 5629
5647 5648 5648 5649 5650 5649 5649 5651 5651 5651 5651 5651 5651 5652 5653 5652 5651 5651 5651 5650 5650 5649 5649 5649 5648 5648 5647 5647 5646 5645 5644 5643 5641 5640 5638 5637 5635 5633 5631 5629 5627 5624 5621 5618
5638 5638 5639 5639 5640 5638 5639 5643 5643 5642 5642 5643 5642 5645 5644 5643 5643 5642 5642 5642 5641 5641 5640 5640 5639 5639 5638 5637 5636 5635 5634 5633 5631 5630 5628 5627 5625 5624 5622 5619 5617 5614 5611 5608
5629 5628 5628 5628 5629 5628 5634 5633 5633 5632 5633 5633 5633 5634 5633 5633 5633 5633 5633 5632 5632 5631 5630 5630 5629 5629 5628 5627 5627 5625 5624 5623 5621 5620 5618 5617 5615 5613 5611 5609 5606 5604 5601 5598
5618 5618 5617 5617 5616 5617 5623 5623 5622 5621 5622 5623 5622 5623 5623 5622 5622 5623 5622 5622 5622 5621 5620 5620 5619 5619 5618 5617 5616 5615 5614 5612 5611 5609 5608 5606 5604 5602 5600 5598 5595 5592 5590 5586
5607 5607 5608 5607 5606 5607 5613 5612 5610 5610 5610 5612 5611 5612 5612 5611 5612 5613 5611 5611 5611 5610 5609 5609 5608 5608 5607 5606 5605 5604 5603 5601 5600 5599 5597 5595 5593 5591 5589 5586 5584 5581 5578 5575
5595 5595 5596 5596 5594 5596 5601 5599 5598 5599 5600 5600 5599 5599 5599 5600 5601 5601 5600 5600 5599 5599 5598 5597 5597 5596 5596 5595 5594 5593 5591 5590 5588 5587 5586 5584 5582 5580 5577 5575 5572 5569 5566 5563
5582 5583 5583 5583 5583 5588 5589 5587 5587 5586 5586 5587 5587 5587 5587 5587 5588 5588 5588 5587 5587 5587 5586 5586 5585 5584 5584 5583 5582 5581 5579 5578 5576 5575 5573 5571 5569 5567 5564 5562 5559 5556 5553 5550
5570 5572 5571 5572 5574 5575 5575 5575 5574 5574 5574 5574 5574 5575 5575 5575 5575 5575 5575 5575 5575 5574 5574 5573 5573 5572 5571 5570 5569 5568 5567 5565 5564 5562 5560 5558 5556 5554 5551 5549 5546 5543 5540 5537
5557 5557 5558 5559 5561 5562 5561 5561 5561 5561 5561 5561 5561 5562 5562 5562 5562 5562 5562 5562 5562 5561 5561 5560 5560 5559 5558 5557 5556 5555 5554 5552 5550 5549 5547 5545 5543 5540 5538 5535 5532 5529 5526 5523
5543 5544 5544 5545 5548 5548 5548 5548 5547 5548 5547 5548 5548 5548 5548 5548 5548 5549 5549 5548 5548 5548 5547 5547 5546 5545 5544 5543 5542 5541 5539 5538 5536 5535 5533 5531 5528 5526 5523 5521 5518 5515 5512 5509
5530 5531 5532 5533 5535 5534 5535 5535 5534 5533 5533 5534 5534 5534 5534 5534 5534 5534 5534 5533 5533 5533 5532 5532 5531 5531 5530 5529 5528 5526 5525 5523 5522 5520 5518 5516 5514 5511 5509 5506 5503 5500 5498 5495